Location: Sumpter
(44.7457°N, 118.2022°W)
Time: 22:16:31
(UTC-08:00)

ISS - Visible Passes

Search period start: 17 November 2018 00:00
Search period end: 27 November 2018 00:00
Orbit: 402 x 408 km, 51.6° (Epoch: 18 November)

Date Brightness Start Highest point End Pass type
(mag) Time Alt. Az. Time Alt. Az. Time Alt. Az.
23 Nov -2.1 18:05:09 10° SSW 18:07:01 22° SSE 18:07:01 22° SSE visible
24 Nov -1.7 17:14:06 10° SSE 17:15:52 14° SE 17:17:13 12° ESE visible
24 Nov -1.3 18:48:41 10° WSW 18:49:53 21° WSW 18:49:53 21° WSW visible
25 Nov -3.7 17:56:34 10° SW 17:59:46 54° SE 17:59:59 53° SE visible
26 Nov -2.7 17:04:45 10° SSW 17:07:39 30° SE 17:10:00 13° E visible
26 Nov -1.7 18:40:53 10° W 18:42:40 27° W 18:42:40 27° W visible
